Location: Lugrin
(46.4033°N, 6.6674°E)
Time: 11:37:29
(UTC+00:00)

Cosmos 1943 - Pass Details

Date: 18 September 2020
Orbit: 833 x 850 km, 71.0° (Epoch: 24 October)

Event Time Altitude Azimuth Distance (km) Brightness Sun altitude
Rises 18:01:39 0° 335° (NNW) 3,400 6.8 -4.8°
Reaches altitude 10° 18:04:08 10° 338° (NNW) 2,464 6.1 -5.3°
Maximum altitude 18:09:45 65° 61° (ENE) 924 3.3 -6.2°
Drops below altitude 10° 18:15:22 10° 143° (SE) 2,460 5.2 -7.2°
Sets 18:17:50 0° 146° (SE) 3,394 5.9 -7.6°
